This is the latest recevied weather packets stored in our database for station/object KO4LCK. If no packets are shown the sender has not sent any weather packets the latest 10 day(s).
| Time | Temp. | Humidity | Pressure | Rain* | Wind** | Luminosity | Snow |
|---|---|---|---|---|---|---|---|
| 1777994528 | 24.44° C | 49% | 1016.5 hPa | 0 mm | - | 667 W/m² | - |
| 1777994223 | 23.33° C | 53% | 1016.7 hPa | 0 mm | - | 654 W/m² | - |
| 1777993921 | 22.78° C | 52% | 1016.6 hPa | 0 mm | - | 645 W/m² | - |
| 1777993617 | 22.22° C | 55% | 1016.5 hPa | 0 mm | - | 634 W/m² | - |
| 1777993314 | 22.78° C | 55% | 1016.7 hPa | 0 mm | - | 621 W/m² | - |
| 1777993009 | 22.22° C | 54% | 1016.5 hPa | 0 mm | - | 572 W/m² | - |
| 1777992709 | 22.22° C | 53% | 1016.4 hPa | 0 mm | - | 596 W/m² | - |
| 1777992406 | 22.22° C | 56% | 1016.3 hPa | 0 mm | - | 597 W/m² | - |
| 1777992103 | 22.22° C | 53% | 1016.7 hPa | 0 mm | - | 579 W/m² | - |
| 1777991801 | 22.22° C | 55% | 1016.6 hPa | 0 mm | - | 557 W/m² | - |
| 1777991498 | 21.67° C | 58% | 1016.7 hPa | 0 mm | - | 528 W/m² | - |
| 1777991195 | 21.11° C | 56% | 1016.9 hPa | 0 mm | - | 452 W/m² | - |
| 1777990892 | 21.11° C | 57% | 1016.7 hPa | 0 mm | - | 448 W/m² | - |
| 1777990590 | 21.11° C | 56% | 1016.8 hPa | 0 mm | - | 512 W/m² | - |
| 1777989983 | 20° C | 61% | 1016.6 hPa | 0 mm | - | 440 W/m² | - |
| 1777989680 | 20° C | 61% | 1016.8 hPa | 0 mm | - | 418 W/m² | - |
| 1777989375 | 20° C | 61% | 1016.6 hPa | 0 mm | - | 432 W/m² | - |
| 1777989073 | 20° C | 60% | 1016.7 hPa | 0 mm | - | 408 W/m² | - |
| 1777988768 | 19.44° C | 59% | 1016.6 hPa | 0 mm | - | 405 W/m² | - |
| 1777988466 | 18.33° C | 61% | 1016.9 hPa | 0 mm | - | 375 W/m² | - |
| 1777988163 | 17.78° C | 62% | 1016.8 hPa | 0 mm | - | 355 W/m² | - |
| 1777987858 | 17.78° C | 63% | 1016.7 hPa | 0 mm | - | 299 W/m² | - |
| 1777987555 | 17.78° C | 64% | 1016.8 hPa | 0 mm | - | 336 W/m² | - |
| 1777987253 | 17.22° C | 64% | 1016.6 hPa | 0 mm | - | 318 W/m² | - |
| 1777986949 | 17.22° C | 67% | 1016.4 hPa | 0 mm | - | 300 W/m² | - |
* Rain latest hour (hover to see other rain measurements)
** Current wind speed in m/s (hover to see current wind gust speed)